SL-14 R/B, 19275

Orbit data source: Space-Track

SL-14 R/B, 19275 is space debris in LEO originally from a launch on Tue, 05 Jul 1988 UTC launched from the Plesetsk Missile And Space Complex (PKMTR). Debris objects in space refer to the collection of defunct objects orbiting the Earth. Examples of debris include non-operational satellites, rocket bodies, and fragments generated from explosions, collisions, or faulty payload assembly.

Loading next visibility...
Identifier
19275, 1988-056B
Orbit
LEO
Last TLE update
18 hours ago
Origin
Manufacturer
Yuzhnoe
Mission
Spacecraft
Bus & Motor
S5M, Unknown motor
Mass
1,600 kg wet, 1,600 kg dry
Launch date (UTC)
1988-07-05 (37 years ago)
Launch vehicle
Unknown
Launch site
Plesetsk Missile And Space Complex (PKMTR)
Object type
Payload
Rocket body
Debris
Shape & HBR
Cyl, 2.7 m
Radar Cross Section
7.351 m², Large (>1 m²)

Expand to show TLE details & history

TLE from 18 hours ago
0 SL-14 R/B
1 19275U 88056B   25189.72182733  .00000297  00000-0  32059-4 0  9990
2 19275  82.5152  93.8202 0018048 223.5753 136.4038 14.84789241978468
Epoch: 2025-07-08T17:19Z
TLE epoch observation values (Epoch: 2025-07-08T17:19:25.881Z)
Latitude
-0.00004°
Longitude
-92.95038°
Altitude
626.44 km
Speed
7.54 km/s
True Right ascension
06h 15m 16s
True Declination
0° 00' 00"
Sunlit
Object was in daylight at epoch
Visualization orbit readout
Latitude
80.58494°
Longitude
34.33442°
Altitude
634.928 km
Speed
7.544 km/s
Apparent Right ascension
12h 15m 36s
Apparent Declination
26° 06' 45"
Sunlit
Object is in daylight
Visualization observer readout
Local Sidereal Time
23:42:57
Azimuth
352.005° N
Elevation
-23.534°
Doppler factor
1
Orbital elements
Apogee altitude
623.878 km
Perigee altitude
598.649 km
Semi-major axis
6,989.401 km
Eccentricity
0.0018
Inclination
82.5152°
RAAN
93.8202°
Arg. of periapsis
223.5753°
True anomaly
Unknown
Mean anomaly
136.4038°
Eccentric anomaly
Unknown
Mean motion
3.71435 °/min
Orbital period
96.92 mins
BSTAR
0.000032059
Loading maneuver chart data...
Loading SW <> Apogee altitude chart data...
Loading historical data...
Loading historical data...
Loading historical data...
Loading historical data...
Loading historical data...
Loading historical data...
Loading historical data...
Other satellites on launch #56 in the year 1988 (1988-07-05 UTC)

SL-14 R/B Visibility forecast

Observer location: undefined°, undefined°

Span
Click to sort rows by Start time (UTC) header in descending order
Start Az.
Max El. time (UTC)
Max El. Az.
Max El.
End time (UTC)
End Az.
6 mins2025-07-09 17:42:47.132Z146.505° SSE2025-07-09 17:45:47.132Z91.686° ESE27.666°2025-07-09 17:48:47.132Z35.25° NE
5 mins2025-07-09 19:21:47.132Z254.442° W2025-07-09 19:23:47.132Z289.691° WNW19.471°2025-07-09 19:26:47.132Z334.222° NNW
7 mins2025-07-10 05:28:47.132Z352.035° N2025-07-10 05:31:47.132Z345.883° N44.232°2025-07-10 05:35:47.132Z174.473° S
|